Change the Weather History Date:

Friday, January 11, 2013

  Actual Average (KBJC) Record (KBJC)
Temperature  
Mean Temperature 24 °F -  
Max Temperature 43 °F 44 °F 66 °F (2000)
Min Temperature 5 °F 23 °F -4 °F (1997)
Degree Days  
Heating Degree Days 40    
Moisture  
Dew Point 16 °F    
Average Humidity 64    
Maximum Humidity 90    
Minimum Humidity 28    
Precipitation  
Precipitation 0.00 in - - ()
Sea Level Pressure  
Sea Level Pressure 29.47 in    
Wind  
Wind Speed 9 mph (SSE)    
Max Wind Speed 18 mph    
Max Gust Speed 26 mph    
Visibility 10 miles    
Events Snow    
Averages and records for this station are not official NWS values.
T = Trace of Precipitation, MM = Missing Value Source: NWS Daily Summary

Daily Weather History Graph

Daily Weather History Graph

Search for Another Location

Airport or City:

Trip Planner

Search our weather history database for the weather conditions in past years. The results will help you decide how hot, cold, wet, or windy it might be!

Date:

Astronomy

Jan. 11, 2013 Rise Set
Actual Time 7:21 AM MST 4:55 PM MST
Civil Twilight 6:51 AM MST 5:25 PM MST
Nautical Twilight 6:17 AM MST 5:59 PM MST
Astronomical Twilight 5:45 AM MST 6:31 PM MST
Moon 6:56 AM MST (1/11) 5:16 PM MST (1/11)
Length of Visible Light 10h 34m
Length of Day
9h 34m
Waning Crescent, 0% of the Moon is Illuminated
Jan 11
Waning Crescent
Jan 11
New
Jan 18
First Quarter
Jan 26
Full
Feb 3
Last Quarter

Hourly Weather History & Observations

Time (MST) Temp. Windchill Dew Point Humidity Pressure Visibility Wind Dir Wind Speed Gust Speed Precip Events Conditions
12:16 AM 21.6 °F 16.8 °F 14.2 °F 73% 29.43 in 10.0 mi West 3.5 mph - N/A   Clear
12:36 AM 37.6 °F 34.0 °F 16.5 °F 42% 29.43 in 10.0 mi SW 4.6 mph - N/A   Clear
12:56 AM 32.4 °F 29.1 °F 15.8 °F 51% 29.41 in 10.0 mi SSW 3.5 mph - N/A   Clear
1:16 AM 39.9 °F 32.9 °F 17.1 °F 40% 29.40 in 10.0 mi SSW 11.5 mph - N/A   Clear
1:36 AM 41.7 °F 34.4 °F 15.6 °F 35% 29.39 in 10.0 mi SSW 13.8 mph 17.3 mph N/A   Clear
1:56 AM 40.6 °F 33.0 °F 14.9 °F 35% 29.39 in 10.0 mi SSW 13.8 mph - N/A   Clear
2:16 AM 41.2 °F 32.7 °F 14.2 °F 33% 29.38 in 10.0 mi SSW 17.3 mph 21.9 mph N/A   Clear
2:36 AM 43.0 °F 35.4 °F 13.6 °F 30% 29.37 in 10.0 mi SSW 16.1 mph 24.2 mph N/A   Clear
2:56 AM 41.7 °F 34.4 °F 13.6 °F 32% 29.37 in 10.0 mi SSW 13.8 mph 19.6 mph N/A   Clear
3:16 AM 41.0 °F 34.3 °F 13.5 °F 33% 29.36 in 10.0 mi SSW 11.5 mph 18.4 mph N/A   Clear
3:36 AM 38.5 °F 32.1 °F 14.2 °F 37% 29.34 in 10.0 mi South 9.2 mph - N/A   Clear
3:56 AM 36.0 °F 30.3 °F 14.7 °F 42% 29.33 in 10.0 mi SW 6.9 mph - N/A   Clear
4:16 AM 36.7 °F 29.4 °F 14.9 °F 41% 29.33 in 10.0 mi SSW 10.4 mph - N/A   Clear
4:36 AM 33.8 °F 27.7 °F 15.8 °F 48% 29.31 in 10.0 mi SW 6.9 mph - N/A   Clear
4:56 AM 32.5 °F 27.1 °F 15.8 °F 50% 29.30 in 10.0 mi SW 5.8 mph - N/A   Clear
5:16 AM 36.9 °F 27.8 °F 15.4 °F 42% 29.29 in 10.0 mi South 15.0 mph - N/A   Clear
5:36 AM 39.2 °F 31.2 °F 14.5 °F 37% 29.28 in 10.0 mi South 13.8 mph 20.7 mph N/A   Clear
5:56 AM 39.6 °F 31.7 °F 14.4 °F 36% 29.26 in 10.0 mi South 13.8 mph 21.9 mph N/A   Clear
6:16 AM 38.5 °F 29.9 °F 15.4 °F 39% 29.26 in 10.0 mi South 15.0 mph - N/A   Clear
6:36 AM 37.4 °F 30.3 °F 15.6 °F 41% 29.26 in 10.0 mi SSW 10.4 mph - N/A   Clear
6:56 AM 34.0 °F 27.2 °F 16.2 °F 48% 29.27 in 10.0 mi SSW 8.1 mph - N/A   Clear
7:16 AM 32.5 °F 26.2 °F 16.5 °F 52% 29.26 in 10.0 mi South 6.9 mph - N/A   Clear
7:36 AM 32.4 °F 29.1 °F 17.4 °F 54% 29.26 in 10.0 mi SSW 3.5 mph - N/A   Clear
7:56 AM 33.1 °F 30.0 °F 18.3 °F 55% 29.28 in 10.0 mi West 3.5 mph - N/A   Scattered Clouds
8:36 AM 38.5 °F 30.7 °F 20.7 °F 49% 29.30 in 10.0 mi West 12.7 mph 18.4 mph N/A   Overcast
8:56 AM 38.3 °F 31.4 °F 22.6 °F 53% 29.30 in 10.0 mi West 10.4 mph 17.3 mph N/A   Overcast
9:16 AM 39.6 °F 33.0 °F 20.5 °F 46% 29.29 in 10.0 mi NNW 10.4 mph 18.4 mph N/A   Overcast
9:36 AM 40.5 °F 37.3 °F 20.5 °F 45% 29.29 in 10.0 mi NNE 4.6 mph - N/A   Overcast
9:56 AM 40.8 °F 36.2 °F 19.2 °F 42% 29.31 in 10.0 mi NNW 6.9 mph - N/A   Overcast
10:16 AM 39.0 °F 31.0 °F 8.2 °F 28% 29.33 in 10.0 mi NNW 13.8 mph 18.4 mph N/A   Overcast
10:56 AM 33.8 °F 29.6 °F 31.1 °F 90% 29.34 in 10.0 mi ENE 4.6 mph - N/A   Overcast
11:16 AM 35.4 °F 27.3 °F 28.9 °F 77% 29.33 in 10.0 mi ESE 11.5 mph 16.1 mph N/A   Overcast
11:36 AM 32.0 °F 23.6 °F 27.7 °F 84% 29.33 in 10.0 mi East 10.4 mph - N/A   Overcast
11:56 AM 31.8 °F 21.0 °F 27.1 °F 83% 29.34 in 10.0 mi East 16.1 mph 23.0 mph N/A   Mostly Cloudy
12:16 PM 30.6 °F 19.8 °F 26.8 °F 86% 29.35 in 10.0 mi ENE 15.0 mph 21.9 mph N/A   Overcast
1:14 PM 29.8 °F 18.0 °F 25.2 °F 83% 29.37 in 10.0 mi ENE 17.3 mph 25.3 mph N/A   Mostly Cloudy
1:36 PM 29.3 °F 17.0 °F 23.9 °F 80% 29.40 in 10.0 mi ENE 18.4 mph 24.2 mph N/A   Overcast
1:56 PM 27.5 °F 16.8 °F 22.3 °F 81% 29.42 in 10.0 mi ENE 12.7 mph 26.5 mph N/A   Overcast
2:16 PM 27.3 °F 16.1 °F 22.1 °F 81% 29.45 in 10.0 mi East 13.8 mph 17.3 mph N/A   Overcast
2:36 PM 25.7 °F 14.6 °F 21.6 °F 84% 29.46 in 10.0 mi ENE 12.7 mph 21.9 mph N/A   Overcast
2:56 PM 25.2 °F 13.9 °F 20.8 °F 84% 29.48 in 3.0 mi East 12.7 mph 20.7 mph N/A Snow Light Snow
3:16 PM 24.4 °F 13.0 °F 19.8 °F 82% 29.51 in 7.0 mi East 12.7 mph - N/A Snow Light Snow
3:36 PM 21.4 °F 9.7 °F 17.1 °F 83% 29.53 in 10.0 mi ENE 11.5 mph - N/A   Mostly Cloudy
3:56 PM 21.2 °F 10.1 °F 17.2 °F 85% 29.55 in 10.0 mi East 10.4 mph - N/A   Overcast
4:16 PM 19.2 °F 8.4 °F 14.7 °F 83% 29.57 in 10.0 mi East 9.2 mph - N/A   Mostly Cloudy
4:36 PM 19.4 °F 9.5 °F 15.4 °F 85% 29.59 in 10.0 mi SE 8.1 mph - N/A   Scattered Clouds
4:56 PM 17.6 °F 6.4 °F 13.5 °F 84% 29.60 in 10.0 mi ESE 9.2 mph - N/A   Scattered Clouds
5:16 PM 17.1 °F 10.0 °F 13.6 °F 86% 29.62 in 10.0 mi ESE 4.6 mph - N/A   Scattered Clouds
5:36 PM 18.3 °F 11.5 °F 14.9 °F 86% 29.64 in 7.0 mi East 4.6 mph - N/A   Overcast
5:56 PM 17.4 °F 8.0 °F 14.0 °F 86% 29.65 in 10.0 mi East 6.9 mph - N/A   Mostly Cloudy
6:16 PM 16.9 °F 6.4 °F 13.5 °F 86% 29.66 in 10.0 mi SSE 8.1 mph - N/A   Scattered Clouds
6:36 PM 16.7 °F 8.3 °F 13.1 °F 86% 29.67 in 10.0 mi SSE 5.8 mph - N/A   Clear
6:56 PM 16.0 °F 8.8 °F 12.7 °F 87% 29.68 in 10.0 mi SSE 4.6 mph - N/A   Clear
7:16 PM 15.8 °F - 12.4 °F 86% 29.69 in 10.0 mi Calm Calm - N/A   Clear
7:36 PM 15.8 °F 6.1 °F 13.1 °F 89% 29.68 in 10.0 mi SSE 6.9 mph - N/A   Clear
7:56 PM 16.0 °F 7.4 °F 13.1 °F 88% 29.69 in 10.0 mi South 5.8 mph - N/A   Clear
8:16 PM 17.4 °F 7.1 °F 13.8 °F 86% 29.70 in 10.0 mi South 8.1 mph - N/A   Clear
8:36 PM 18.9 °F 8.0 °F 11.3 °F 72% 29.70 in 10.0 mi SSE 9.2 mph - N/A   Clear
8:56 PM 17.2 °F 4.5 °F 12.2 °F 81% 29.70 in 10.0 mi SSE 11.5 mph - N/A   Clear
9:16 PM 17.2 °F 6.0 °F 13.1 °F 84% 29.70 in 10.0 mi SSE 9.2 mph - N/A   Clear
9:36 PM 16.7 °F 7.2 °F 10.6 °F 77% 29.70 in 10.0 mi SSE 6.9 mph - N/A   Clear
9:56 PM 18.0 °F - 6.6 °F 61% 29.71 in 10.0 mi Calm Calm - N/A   Clear
10:36 PM 19.8 °F 7.7 °F 0.3 °F 43% 29.72 in 10.0 mi SSW 11.5 mph - N/A   Clear
10:56 PM 21.6 °F 12.1 °F -1.5 °F 37% 29.72 in 10.0 mi West 8.1 mph - N/A   Clear
11:16 PM 7.2 °F -4.3 °F 3.9 °F 87% 29.75 in 10.0 mi NNW 6.9 mph - N/A   Clear
11:36 PM 6.3 °F -4.1 °F 3.6 °F 89% 29.75 in 5.0 mi NNW 5.8 mph - N/A Snow Light Snow
11:56 PM 5.0 °F -4.1 °F 2.3 °F 89% 29.77 in 5.0 mi North 4.6 mph - N/A Snow Light Snow